Hourly Data Report for December 10, 2010

IQALUIT CLIMATE
NUNAVUT

63°44'50.000" N
68°32'40.000" W
33.50 m
2402592
71321
XFB

Download Data

Hourly Data (December 2010)
Hourly Data Report for December 10, 2010
TIME
LST
Temp Definition
°C
Dew Point Definition
°C
Rel Hum Definition
%
Precip. Amount Definition
mm

Wind Dir Definition
10's deg

Wind Spd Definition
km/h
Visibility Definition
km
Stn Press Definition
kPa
Hmdx Definition


Wind Chill Definition


Weather Definition


00:00 -13.7 -15.3 88   31 33   99.08   -25 LegendNANA
01:00 -13.9 -15.7 86   31 28   99.18   -24 LegendNANA
02:00 -14.1 -16.1 85   31 28   99.29   -25 LegendNANA
03:00 -14.3 -16.3 85   32 26   99.33   -24 LegendNANA
04:00 -16.0 -18.2 83   32 17   99.42   -25 LegendNANA
05:00 -17.8 -20.1 82   29 9   99.51   -24 LegendNANA
06:00 -18.2 -20.2 84   31 9   99.61   -25 LegendNANA
07:00 -19.0 -20.7 86   33 4   99.71   -22 LegendNANA
08:00 -21.7 -23.4 86   36 11   99.81   -30 LegendNANA
09:00 -20.8 -22.8 84   36 13   99.90   -29 LegendNANA
10:00 -19.7 -21.7 84   36 7   99.97   -25 LegendNANA
11:00 -20.7 -22.6 85   1 7   100.01   -26 LegendNANA
12:00 -19.7 -22.0 82   3 7   100.07   -25 LegendNANA
13:00 -19.6 -21.9 82   1 7   100.12   -25 LegendNANA
14:00 -18.1 -20.0 85   4 6   100.16   -23 LegendNANA
15:00 -14.8 -16.4 88   13 11   100.23   -21 LegendNANA
16:00 -16.5 -18.5 84   9 4   100.30   -20 LegendNANA
17:00 -17.7 -19.2 88   36 7   100.37   -23 LegendNANA
18:00 -18.6 -20.5 85   35 6   100.44   -23 LegendNANA
19:00 -16.1 -19.1 78   28 11   100.50   -23 LegendNANA
20:00 -13.8 -16.3 81   28 15   100.58   -21 LegendNANA
21:00 -18.1 -21.3 76   35 11   100.60   -25 LegendNANA
22:00 -17.1 -20.2 77   36 9   100.60   -23 LegendNANA
23:00 -16.2 -19.6 75   5 9   100.60   -22 LegendNANA

Notes on Data Quality.

Legend

  • E = Estimated
  • M = Missing
  • NA = Not Available*
  • [empty] = Indicates an unobserved value
Date modified: